Terug naar catalogus

ARIANE 2 DEB

ActiefGTO
NORAD 28562·DEBRIS·🇫🇷 France

Gelanceerd May 17, 1988 vanaf Guiana Space Centre

Loading…

TLE

VerouderendSource: Space-Track

Epoch: Sep 14, 2026, 16:48 UTC

1 28562U 88040F   26257.70017086  .00001198  00000-0  51849-2 0  9992
2 28562   7.2466 165.4314 7041780  98.7779 339.8197  2.47001023205172

Volg ARIANE 2 DEB in realtime met AllMySat

Download on the App Store